Location: Dürabuch
(48.2640°N, 11.2185°E)
Time: 02:17:51
(UTC+00:00)

CZ-2D R/B - Pass Details

Date: 23 May 2024
Orbit: 791 x 843 km, 98.8° (Epoch: 13 June)

Event Time Altitude Azimuth Distance (km) Brightness Sun altitude
Rises 01:50:27 0° 11° (NNE) 3,413 6.6 -12.5°
Reaches altitude 10° 01:52:52 10° 8° (N) 2,472 5.6 -12.3°
Maximum altitude 01:58:15 59° 290° (WNW) 966 2.4 -11.7°
Enters shadow 02:02:43 15° 215° (SW) 2,120 3.6 -11.2°
